Blue Ridge Summit, PA

1:56 AM EDT on October 01, 2016 (GMT -0400)
Fountain Dale

Weather History for KRYT - August, 2013

Change the Weather History Date:

Tuesday, August 6, 2013

  Actual Average (KHGR) Record (KHGR)
Temperature  
Mean Temperature 69 °F 74 °F  
Max Temperature 77 °F 84 °F 93 °F (2001)
Min Temperature 63 °F 65 °F 51 °F (1997)
Degree Days  
Heating Degree Days 0 0  
Month to date heating degree days 0  
Since 1 June heating degree days 18  
Since 1 July heating degree days 0  
Cooling Degree Days 4 9  
Month to date cooling degree days 59  
Year to date cooling degree days 665  
Since 1 June cooling degree days 589  
Growing Degree Days 19 (Base 50)    
Moisture  
Dew Point 62 °F    
Average Humidity 78    
Maximum Humidity 88    
Minimum Humidity 69    
Precipitation  
Precipitation 0.14 in 0.11 in 0.64 in (2000)
Month to date precipitation 0.58  
Year to date precipitation 24.07  
Sea Level Pressure  
Sea Level Pressure 30.05 in    
Wind  
Wind Speed 1 mph (NE)    
Max Wind Speed 7 mph    
Max Gust Speed -    
Visibility 6 miles    
Events Rain    
T = Trace of Precipitation, MM = Missing Value Source: NWS Daily Summary

Daily Weather History Graph

Daily Weather History Graph

Search for Another Location

Airport or City:

Trip Planner

Search our weather history database for the weather conditions in past years. The results will help you decide how hot, cold, wet, or windy it might be!

Date:

Astronomy

Aug. 06, 2013 Rise Set
Actual Time 6:13 AM EDT 8:16 PM EDT
Civil Twilight 5:43 AM EDT 8:46 PM EDT
Nautical Twilight 5:07 AM EDT 9:22 PM EDT
Astronomical Twilight 4:28 AM EDT 10:01 PM EDT
Moon 6:02 AM EDT (8/6) 7:50 PM EDT (8/6)
Length of Visible Light 15h 02m
Length of Day
14h 03m
Waning Crescent, 0% of the Moon is Illuminated
Aug 6
Waning Crescent
Aug 6
New
Aug 14
First Quarter
Aug 20
Full
Aug 28
Last Quarter

Hourly Weather History & Observations

Time (EDT) Temp. Dew Point Humidity Pressure Visibility Wind Dir Wind Speed Gust Speed Precip Events Conditions
12:53 AM 64.0 °F 55.9 °F 75% 30.03 in 10.0 mi Calm Calm - N/A   Overcast
1:53 AM 63.0 °F 55.9 °F 78% 30.02 in 10.0 mi Calm Calm - N/A   Overcast
2:53 AM 63.0 °F 55.9 °F 78% 30.02 in 10.0 mi Calm Calm - N/A   Overcast
3:53 AM 63.0 °F 55.9 °F 78% 30.01 in 10.0 mi Calm Calm - N/A   Scattered Clouds
5:53 AM 64.0 °F 57.0 °F 78% 30.01 in 10.0 mi Calm Calm - N/A   Overcast
6:53 AM 64.0 °F 57.9 °F 80% 30.02 in 10.0 mi Calm Calm - N/A   Overcast
7:53 AM 66.0 °F 59.0 °F 78% 30.03 in 10.0 mi Calm Calm - 0.00 in   Overcast
8:05 AM 66.2 °F 57.2 °F 73% 30.06 in 9.0 mi Calm Calm - 0.00 in Rain Light Rain
8:27 AM 64.4 °F 59.0 °F 83% 30.06 in 2.0 mi Calm Calm - 0.04 in Rain Rain
8:45 AM 64.4 °F 59.0 °F 83% 30.06 in 1.8 mi Calm Calm - 0.08 in Rain Light Rain
8:53 AM 64.9 °F 59.0 °F 81% 30.03 in 1.8 mi Calm Calm - 0.10 in Rain Rain
9:05 AM 64.4 °F 60.8 °F 88% 30.06 in 3.0 mi Calm Calm - 0.01 in Rain Light Rain
9:32 AM 66.2 °F 60.8 °F 83% 30.07 in 3.0 mi Calm Calm - 0.02 in Rain Light Rain
9:40 AM 66.2 °F 60.8 °F 83% 30.07 in 3.0 mi Calm Calm - 0.03 in Rain Light Rain
9:53 AM 66.9 °F 61.0 °F 81% 30.04 in 4.0 mi Calm Calm - 0.03 in Rain Light Rain
10:14 AM 66.2 °F 60.8 °F 83% 30.07 in 5.0 mi Calm Calm - 0.00 in   Haze
10:29 AM 66.2 °F 60.8 °F 83% 30.06 in 5.0 mi Calm Calm - 0.00 in   Haze
10:38 AM 66.2 °F 60.8 °F 83% 30.07 in 5.0 mi Calm Calm - 0.00 in   Haze
10:51 AM 66.2 °F 62.6 °F 88% 30.07 in 4.0 mi NNE 3.5 mph - 0.00 in   Haze
10:53 AM 66.9 °F 62.1 °F 84% 30.05 in 4.0 mi Calm Calm - 0.00 in   Haze
11:33 AM 68.0 °F 62.6 °F 83% 30.07 in 5.0 mi NE 3.5 mph - N/A   Haze
11:53 AM 68.0 °F 62.1 °F 81% 30.06 in 4.0 mi NE 3.5 mph - N/A   Haze
12:45 PM 68.0 °F 62.6 °F 83% 30.08 in 2.0 mi NNE 3.5 mph - N/A   Haze
12:53 PM 68.0 °F 62.1 °F 81% 30.06 in 2.0 mi Calm Calm - 0.00 in Rain Light Rain
1:06 PM 68.0 °F 62.6 °F 83% 30.08 in 4.0 mi Calm Calm - 0.00 in   Haze
1:23 PM 69.8 °F 62.6 °F 78% 30.08 in 2.5 mi Calm Calm - 0.00 in Rain Light Rain
1:53 PM 69.1 °F 63.0 °F 81% 30.06 in 5.0 mi NE 3.5 mph - 0.00 in   Haze
2:53 PM 72.0 °F 64.0 °F 76% 30.05 in 7.0 mi NE 3.5 mph - 0.00 in   Overcast
3:14 PM 73.4 °F 64.4 °F 73% 30.07 in 9.0 mi NE 4.6 mph - N/A   Mostly Cloudy
3:22 PM 73.4 °F 64.4 °F 73% 30.07 in 9.0 mi Calm Calm - N/A   Mostly Cloudy
3:53 PM 73.0 °F 64.0 °F 73% 30.04 in 9.0 mi NE 5.8 mph - N/A   Overcast
4:17 PM 73.4 °F 64.4 °F 73% 30.06 in 9.0 mi NE 5.8 mph - N/A   Overcast
4:26 PM 75.2 °F 64.4 °F 69% 30.06 in 9.0 mi Variable 4.6 mph - 0.01 in   Mostly Cloudy
4:53 PM 75.0 °F 64.0 °F 69% 30.04 in 9.0 mi NE 5.8 mph - 0.01 in   Scattered Clouds
5:06 PM 75.2 °F 64.4 °F 69% 30.07 in 10.0 mi NE 6.9 mph - N/A   Mostly Cloudy
5:21 PM 73.4 °F 64.4 °F 73% 30.06 in 10.0 mi ENE 6.9 mph - N/A   Mostly Cloudy
5:53 PM 73.0 °F 64.0 °F 73% 30.04 in 7.0 mi Variable 5.8 mph - N/A   Overcast
6:53 PM 73.0 °F 64.0 °F 73% 30.04 in 7.0 mi NNE 3.5 mph - N/A   Overcast
7:53 PM 72.0 °F 64.0 °F 76% 30.05 in 7.0 mi Calm Calm - N/A   Overcast
8:09 PM 71.6 °F 64.4 °F 78% 30.07 in 7.0 mi Calm Calm - N/A   Overcast
8:53 PM 71.1 °F 64.0 °F 78% 30.06 in 8.0 mi Calm Calm - N/A   Overcast
9:53 PM 71.1 °F 64.0 °F 78% 30.06 in 6.0 mi Calm Calm - N/A   Haze
10:53 PM 71.1 °F 64.0 °F 78% 30.06 in 5.0 mi Calm Calm - N/A   Haze
11:53 PM 71.1 °F 64.0 °F 78% 30.06 in 7.0 mi Calm Calm - N/A   Overcast